Simultaneous Nadir Overpasses (SNOs) Predictions

Prediction of SNOs between AQUA and TERRA Satellite Orbit:

Table of predicted SNOs for the next 14.0 days since TLE Epoch: 7/1/2013
Index Date (AQUA) Time (AQUA) Lat,Lon (AQUA) SZA (AQUA ) Date (TERRA) Time (TERRA) Lat,Lon (TERRA) SZA (TERRA ) Distance(km) Time Diff (sec)
1 07/07/2013 07:11:15 -69.00,-105.77 133.67 07/07/2013 07:10:09 -68.95,-108.12 133.70 93.96 66
2 07/07/2013 08:00:39 69.03, 61.85 46.37 07/07/2013 07:59:33 68.99, 59.57 46.34 90.67 66
3 07/07/2013 08:50:05 -69.29,-130.83 133.37 07/07/2013 08:48:56 -69.29,-132.41 133.37 62.08 69
4 07/07/2013 09:39:29 69.32, 36.78 46.67 07/07/2013 09:38:20 69.33, 35.29 46.68 58.67 69
5 07/07/2013 10:28:55 -69.58,-155.91 133.07 07/07/2013 10:27:44 -69.56,-156.77 133.09 33.25 71
6 07/07/2013 11:18:19 69.61, 11.70 46.97 07/07/2013 11:17:08 69.60, 10.94 46.96 29.63 71
7 07/07/2013 12:07:45 -69.88, 179.00 132.77 07/07/2013 12:06:32 -69.84, 178.89 132.80 5.87 73
8 07/07/2013 12:57:09 69.91, -13.39 47.27 07/07/2013 12:55:56 69.88, -13.40 47.24 3.27 73
9 07/07/2013 13:46:30 -69.90, 154.29 132.74 07/07/2013 13:45:24 -69.90, 154.25 132.74 1.48 66
10 07/07/2013 14:35:54 69.93, -38.11 47.30 07/07/2013 14:34:48 69.94, -38.05 47.31 2.42 66
11 07/07/2013 15:25:15 -69.92, 129.57 132.71 07/07/2013 15:24:17 -69.90, 129.53 132.73 2.90 58
12 07/07/2013 16:14:39 69.95, -62.83 47.33 07/07/2013 16:13:41 69.94, -62.77 47.32 2.90 58
13 07/07/2013 17:04:00 -69.94, 104.85 132.68 07/07/2013 17:03:09 -69.95, 104.89 132.67 1.75 51
14 07/07/2013 17:53:23 69.92, -87.47 47.31 07/07/2013 17:52:34 69.94, -87.48 47.33 1.78 49
15 07/07/2013 18:42:45 -69.97, 80.13 132.64 07/07/2013 18:42:02 -69.95, 80.17 132.66 2.17 43
16 07/07/2013 19:32:08 69.95,-112.19 47.35 07/07/2013 19:31:27 69.94,-112.20 47.33 1.32 41
17 07/07/2013 20:21:29 -69.94, 55.48 132.66 07/07/2013 20:20:55 -69.95, 55.45 132.65 1.99 34
18 07/07/2013 21:10:53 69.98,-136.92 47.38 07/07/2013 21:10:19 70.00,-136.85 47.40 3.25 34
19 07/07/2013 22:00:14 -69.97, 30.76 132.63 07/07/2013 21:59:48 -69.96, 30.73 132.64 1.99 26
20 07/07/2013 22:49:37 69.96,-161.57 47.37 07/07/2013 22:49:13 69.94,-161.64 47.35 3.22 24
21 07/07/2013 23:38:59 -70.00, 6.03 132.59 07/07/2013 23:38:40 -70.01, 6.09 132.58 2.51 19
22 07/08/2013 00:28:22 69.99, 173.70 47.41 07/08/2013 00:28:05 70.00, 173.72 47.42 1.17 17
23 07/08/2013 01:17:43 -69.98, -18.63 132.60 07/08/2013 01:17:33 -70.01, -18.63 132.57 3.43 10
24 07/08/2013 02:07:07 70.02, 148.97 47.45 07/08/2013 02:06:58 70.00, 149.00 47.43 2.97 9
25 07/08/2013 02:56:28 -70.02, -43.36 132.56 07/08/2013 02:56:26 -70.01, -43.35 132.56 0.63 2
26 07/08/2013 03:45:51 70.01, 124.31 47.44 07/08/2013 03:45:51 70.00, 124.28 47.43 1.33 0
27 07/08/2013 04:35:12 -70.00, -68.02 132.57 07/08/2013 04:35:19 -70.02, -68.07 132.55 2.39 7
28 07/08/2013 05:24:36 70.04, 99.57 47.49 07/08/2013 05:24:43 70.06, 99.64 47.50 2.84 7
29 07/08/2013 06:13:57 -70.04, -92.76 132.52 07/08/2013 06:14:12 -70.02, -92.79 132.54 2.88 15
30 07/08/2013 07:03:20 70.03, 74.90 47.48 07/08/2013 07:03:36 70.06, 74.92 47.51 3.01 16
31 07/08/2013 07:52:42 -70.08,-117.51 132.47 07/08/2013 07:53:04 -70.07,-117.43 132.48 3.07 22
32 07/08/2013 08:42:04 70.07, 50.16 47.53 07/08/2013 08:42:28 70.06, 50.20 47.52 2.18 24
33 07/08/2013 09:31:25 -70.07,-142.17 132.47 07/08/2013 09:31:56 -70.07,-142.15 132.47 0.94 31
34 07/08/2013 10:20:48 70.06, 25.49 47.53 07/08/2013 10:21:21 70.06, 25.48 47.52 0.67 33
35 07/08/2013 11:10:09 -70.06,-166.85 132.47 07/08/2013 11:10:49 -70.07,-166.87 132.46 1.67 40
36 07/08/2013 11:59:32 70.05, 0.82 47.53 07/08/2013 12:00:14 70.06, 0.76 47.53 2.39 42
37 07/08/2013 12:48:53 -70.05, 168.48 132.47 07/08/2013 12:49:42 -70.08, 168.41 132.45 3.54 49
38 07/08/2013 13:38:17 70.10, -23.93 47.59 07/08/2013 13:39:06 70.12, -23.88 47.60 2.37 49
39 07/08/2013 14:27:38 -70.10, 143.73 132.41 07/08/2013 14:28:35 -70.08, 143.69 132.44 3.38 57
40 07/08/2013 15:17:01 70.10, -48.61 47.59 07/08/2013 15:17:59 70.12, -48.60 47.61 2.02 58
41 07/08/2013 16:06:22 -70.10, 119.05 132.41 07/08/2013 16:07:27 -70.13, 119.05 132.38 3.49 65
42 07/08/2013 16:55:45 70.10, -73.29 47.59 07/08/2013 16:56:52 70.12, -73.32 47.62 2.64 67
43 07/08/2013 17:45:08 -70.21, 94.21 132.29 07/08/2013 17:46:19 -70.19, 94.41 132.31 7.81 71
44 07/08/2013 18:34:32 70.26, -98.21 47.77 07/08/2013 18:35:43 70.23, -97.88 47.73 12.79 71
45 07/08/2013 19:23:57 -70.48, 69.13 132.01 07/08/2013 19:25:07 -70.46, 70.09 132.03 35.75 70
46 07/08/2013 20:13:22 70.59,-123.38 48.11 07/08/2013 20:14:31 70.50,-122.20 48.02 44.72 69
47 07/08/2013 21:02:47 -70.81, 43.95 131.66 07/08/2013 21:03:54 -70.79, 45.86 131.69 69.94 67
48 07/08/2013 21:52:11 70.87,-148.48 48.40 07/08/2013 21:53:18 70.83,-146.43 48.36 75.17 67




NCC Satellite Simultaneous Nadir Overpasses (SNOs) Prediction Service
